TimeEET,TemperatureF,Dew PointF,Humidity,Sea Level PressureIn,VisibilityMPH,Wind Direction,Wind SpeedMPH,Gust SpeedMPH,PrecipitationIn,Events,Conditions,WindDirDegrees,DateUTC
12:20 AM,62.6,51.8,68,29.83,6.2,SE,6.9,-,N/A,,Mostly Cloudy,130,2013-11-21 22:20:00
12:50 AM,60.8,51.8,72,29.83,6.2,SE,5.8,-,N/A,,Mostly Cloudy,130,2013-11-21 22:50:00
1:20 AM,60.8,53.6,77,29.80,6.2,ESE,6.9,-,N/A,,Mostly Cloudy,110,2013-11-21 23:20:00
1:50 AM,60.8,51.8,72,29.83,6.2,East,3.5,-,N/A,,Mostly Cloudy,100,2013-11-21 23:50:00
2:00 AM,62,52,62,29.83,6,East,3.5,,,,Scattered Clouds,100,2013-11-22 00:00:00
2:20 AM,60.8,51.8,72,29.83,6.2,Variable,2.3,-,N/A,,Mostly Cloudy,0,2013-11-22 00:20:00
2:50 AM,60.8,53.6,77,29.83,6.2,ESE,3.5,-,N/A,,Mostly Cloudy,120,2013-11-22 00:50:00
3:20 AM,60.8,53.6,77,29.86,6.2,South,11.5,-,N/A,Rain,Light Rain Showers,180,2013-11-22 01:20:00
3:50 AM,59.0,55.4,88,29.83,6.2,South,10.4,-,N/A,Rain,Light Rain Showers,190,2013-11-22 01:50:00
4:20 AM,57.2,55.4,94,29.83,6.2,SSE,6.9,-,N/A,Rain,Light Rain Showers,160,2013-11-22 02:20:00
4:50 AM,57.2,55.4,94,29.83,6.2,ESE,6.9,-,N/A,Rain,Light Rain Showers,120,2013-11-22 02:50:00
5:00 AM,58,55,88,29.83,6,ESE,6.9,,,Rain,Light Rain Showers,120,2013-11-22 03:00:00
5:20 AM,57.2,55.4,94,29.80,6.2,East,5.8,-,N/A,Rain,Light Rain Showers,90,2013-11-22 03:20:00
5:50 AM,57.2,55.4,94,29.80,6.2,East,5.8,-,N/A,,Mostly Cloudy,80,2013-11-22 03:50:00
6:08 AM,59.0,55.4,88,29.80,6.2,East,9.2,-,N/A,Rain,Light Rain Showers,90,2013-11-22 04:08:00
6:20 AM,59.0,55.4,88,29.80,6.2,East,4.6,-,N/A,Rain,Light Rain Showers,100,2013-11-22 04:20:00
6:50 AM,59.0,55.4,88,29.80,6.2,ESE,5.8,-,N/A,Rain,Light Rain Showers,110,2013-11-22 04:50:00
7:20 AM,59.0,55.4,88,29.83,6.2,ESE,4.6,-,N/A,Rain,Light Rain Showers,110,2013-11-22 05:20:00
7:50 AM,59.0,53.6,82,29.83,6.2,ESE,5.8,-,N/A,,Mostly Cloudy,120,2013-11-22 05:50:00
8:00 AM,59,54,78,29.83,6,ESE,5.8,,,Rain,Light Rain Showers,120,2013-11-22 06:00:00
8:20 AM,62.6,53.6,72,29.80,6.2,ESE,11.5,-,N/A,,Mostly Cloudy,110,2013-11-22 06:20:00
8:50 AM,60.8,53.6,77,29.80,6.2,ESE,10.4,-,N/A,,Mostly Cloudy,110,2013-11-22 06:50:00
9:20 AM,60.8,53.6,77,29.80,6.2,ESE,13.8,-,N/A,,Mostly Cloudy,120,2013-11-22 07:20:00
9:50 AM,62.6,53.6,72,29.77,6.2,ESE,11.5,-,N/A,,Mostly Cloudy,110,2013-11-22 07:50:00
10:20 AM,60.8,53.6,77,29.77,6.2,ESE,12.7,-,N/A,,Mostly Cloudy,110,2013-11-22 08:20:00
10:50 AM,60.8,51.8,72,29.77,6.2,East,10.4,-,N/A,,Mostly Cloudy,100,2013-11-22 08:50:00
11:00 AM,62,53,65,29.79,6,East,10.4,,,,Partly Cloudy,100,2013-11-22 09:00:00
11:20 AM,60.8,53.6,77,29.77,6.2,ESE,6.9,-,N/A,,Mostly Cloudy,110,2013-11-22 09:20:00
12:20 PM,62.6,53.6,72,29.77,6.2,ESE,6.9,-,N/A,,Mostly Cloudy,110,2013-11-22 10:20:00
12:50 PM,64.4,51.8,64,29.74,6.2,NNE,3.5,-,N/A,,Mostly Cloudy,20,2013-11-22 10:50:00
1:20 PM,64.4,51.8,64,29.74,6.2,East,6.9,-,N/A,,Mostly Cloudy,100,2013-11-22 11:20:00
1:50 PM,64.4,51.8,64,29.74,6.2,ESE,8.1,-,N/A,,Mostly Cloudy,120,2013-11-22 11:50:00
2:00 PM,65,52,53,29.75,6,ESE,8.1,,,,Partly Cloudy,120,2013-11-22 12:00:00
2:01 PM,66.2,53.6,64,29.74,5.0,Variable,8.1,-,N/A,Rain,Light Rain Showers,0,2013-11-22 12:01:00
2:20 PM,64.4,53.6,68,29.74,6.2,ESE,9.2,-,N/A,Rain,Light Rain Showers,120,2013-11-22 12:20:00
2:50 PM,62.6,53.6,72,29.74,6.2,ESE,9.2,-,N/A,Rain,Light Rain Showers,110,2013-11-22 12:50:00
3:06 PM,66.2,53.6,64,29.74,6.2,SE,10.4,-,N/A,,Mostly Cloudy,130,2013-11-22 13:06:00
3:20 PM,64.4,51.8,64,29.74,6.2,South,16.1,-,N/A,,Mostly Cloudy,170,2013-11-22 13:20:00
3:50 PM,62.6,53.6,72,29.74,6.2,SSW,9.2,-,N/A,,Mostly Cloudy,200,2013-11-22 13:50:00
4:20 PM,62.6,53.6,72,29.77,6.2,SSW,11.5,-,N/A,,Mostly Cloudy,210,2013-11-22 14:20:00
4:50 PM,60.8,51.8,72,29.77,6.2,South,17.3,-,N/A,,Mostly Cloudy,180,2013-11-22 14:50:00
5:00 PM,61,52,64,29.78,6,South,17.3,,,,Partly Cloudy,180,2013-11-22 15:00:00
5:20 PM,60.8,53.6,77,29.77,6.2,SSW,13.8,-,N/A,,Mostly Cloudy,210,2013-11-22 15:20:00
5:50 PM,60.8,53.6,77,29.80,6.2,SSW,11.5,-,N/A,,Mostly Cloudy,210,2013-11-22 15:50:00
6:20 PM,59.0,55.4,88,29.80,6.2,WSW,5.8,-,N/A,,Mostly Cloudy,250,2013-11-22 16:20:00
6:50 PM,59.0,55.4,88,29.80,6.2,WSW,4.6,-,N/A,,Mostly Cloudy,250,2013-11-22 16:50:00
7:20 PM,59.0,55.4,88,29.80,6.2,WSW,9.2,-,N/A,,Mostly Cloudy,250,2013-11-22 17:20:00
7:50 PM,59.0,55.4,88,29.80,6.2,WSW,6.9,-,N/A,,Mostly Cloudy,250,2013-11-22 17:50:00
8:00 PM,60,54,76,29.82,6,WSW,6.9,,,,Partly Cloudy,250,2013-11-22 18:00:00
8:20 PM,59.0,55.4,88,29.80,6.2,West,6.9,-,N/A,,Mostly Cloudy,260,2013-11-22 18:20:00
8:50 PM,60.8,55.4,82,29.83,6.2,West,6.9,-,N/A,,Mostly Cloudy,270,2013-11-22 18:50:00
9:20 PM,59.0,53.6,82,29.80,6.2,WSW,8.1,-,N/A,,Mostly Cloudy,250,2013-11-22 19:20:00
9:50 PM,59.0,55.4,88,29.83,6.2,West,8.1,-,N/A,,Mostly Cloudy,270,2013-11-22 19:50:00
10:20 PM,59.0,55.4,88,29.83,6.2,West,5.8,-,N/A,,Mostly Cloudy,260,2013-11-22 20:20:00
10:50 PM,59.0,55.4,88,29.83,6.2,WSW,9.2,-,N/A,,Mostly Cloudy,240,2013-11-22 20:50:00
11:00 PM,59,55,81,29.83,6,WSW,9.2,,,,Partly Cloudy,240,2013-11-22 21:00:00
11:20 PM,59.0,55.4,88,29.83,6.2,WSW,9.2,-,N/A,,Mostly Cloudy,240,2013-11-22 21:20:00
11:50 PM,57.2,55.4,94,29.83,6.2,WSW,5.8,-,N/A,,Mostly Cloudy,250,2013-11-22 21:50:00